Find Starlink 31517

NORAD ID: 59213 Int'l Des: 2024-046 Owner: SPXS Country: US Constellation: starlink operational
LEOCIRCULAR

Current View

Loading 3D Globe...

About Starlink 31517

Starlink 31517 (NORAD 59213) is a starlink constellation satellite (v2 mini) launched Mar 11, 2024 by SPXS of US. It operates in LEO, CIRCULAR orbit with a mass of 730.00 kg.

About Starlink 31517

Description loading...

Upcoming Passes

Passes for default location (London). Set your location on the main map for personalized predictions.

Altitude History

Loading altitude history...

Two-Line Element Set

1 59213U 24046N 26168.89220815 -.00000195 00000-0 53819-5 0 9991
2 59213 53.1620 48.3391 0001591 102.5395 257.5786 15.34393036128400
Epoch: Jun 17, 2026 • Age: 12 hours

Current Status

Altitude 463.0 km
Velocity 7.64 km/s
Sub-Earth Point 2.40°N, 179.21°W
Launch Date Mar 11, 2024
Age 2.2 years
Type internet

Technical Details

Classification Payload
Mass 730.00 kg
Dry Mass 700.00 kg
Total Mass 730.00 kg
Length 0.30 m
Diameter 4.10 m
Span 29.00 m
Shape Box + pan
Manufacturer SPXS
Bus Type Starlink V2M
Phase Status In Orbit
Owner/State SPXS/US

Most Searched